Погода в Вакоа-Фениксе

Маврикий     20°09′24″S   57°30′06″E
темп.,
°C
ветер,
м/с
пор.,
м/с
влажн.,
%
обл.,
%
осадки,
мм/ч
давл.,
гПа
погр.,
м
26 февраля, пт
пт2601:00+23в48891 0.0 1012497
04:00+22в37863 0.1 1011364
07:00+23вюв37863 0.0 1012458
10:00+26в687021 0.3 1013962
13:00+29в685929 0.1 10121112
16:00+27в686215 0.1 1010973
19:00+24в59783 0.0 1011833
22:00+23в510846 0.0 1012783
27 февраля, сб
сб2701:00+23в498531 0.3 1011705
04:00+23вюв499019 0.4 1010542
07:00+23в588610 0.1 1011675
10:00+27в57585 0.2 10121117
13:00+29в56510 0.0 10101129
16:00+28вюв45612 0.0 1009967
19:00+24в478021 0.1 1010648
22:00+24в488013 0.1 1012707
28 февраля, вс
вс2801:00+23в26864 0.1 1011397
04:00+23вюв499123 1.1 1010585
07:00+23вюв598824 0.2 1010597
10:00+27вюв566820 0.3 1011900
13:00+29вюв445935 0.1 1010909
16:00+28ююв345431 0.1 10081082
19:00+23юв48726 0.0 1009565
22:00+23юв48793 0.0 1011612
1 марта, пн
пн101:00+22ююв24904 0.1 1010203
04:00+22юв37928 0.4 1009455
07:00+24юв488618 0.1 1011662
10:00+28вюв576619 0.1 10111001
13:00+29вюв565915 0.0 10101087
16:00+28вюв566221 0.2 10091104
19:00+24юв37804 0.1 1010680
22:00+24юв498411 0.4 1012683
2 марта, вт
вт201:00+23юв49878 0.3 1011661
04:00+22юв48889 0.3 1010516
07:00+24юв498611 0.1 1011696
10:00+28вюв696413 0.1 10111051
13:00+29вюв676116 0.1 10101030
16:00+28вюв576214 0.3 1009932
19:00+25вюв6107810 0.1 1010807
22:00+24вюв510847 0.1 1011735